Miscellaneous Local Product
Issued by NWS North Platte, NE

Home | Current Version | Previous Version | Text Only | Print | Product List | Glossary On
Versions: 1 2 3 4 5 6 7 8 9 10 11 12 13 14 15 16 17 18 19 20 21 22 23 24 25 26 27 28 29 30 31 32 33 34 35 36 37 38 39 40 41 42 43 44 45 46 47 48 49 50
000
AXUS43 KLBF 291110
MISLBF


WESTERN AND NORTH CENTRAL NEBRASKA HOURLY WEATHER ROUNDUP
NATIONAL WEATHER SERVICE NORTH PLATTE NE
600 AM CDT MON JUN 29 2015

***STATIONS NOT REPORTING VARIABLES SUCH AS SKY/WEATHER OR
PRESSURE ARE PROVIDED BY THE NEBRASKA DEPARTMENT OF
ROADS...RAWS...AND APRS NETWORKS...AND ARE NOT UNDER
NATIONAL WEATHER SERVICE QUALITY CONTROL***

...OBSERVATIONS IN AND NEAR THE EASTERN PANHANDLE OF NEBRASKA...

CITY           SKY/WX    TMP DP  RH WIND       PRES   REMARKS
PINE RIDGE     MOCLDY    60  56  86 W6        30.11R
CHADRON        MOCLDY    62  60  93 E3        30.10R
ALLIANCE       PTCLDY    59  55  87 E6        30.11S
SIDNEY         LGT RAIN  62  58  86 E10G21    30.15F
WHITECLAY        N/A     59  55  89 SE3         N/A
CRESCENT LAKE    N/A     63  59  86 CALM        N/A
BIG SPRINGS      N/A     63  60  88 CALM        N/A
$$

...OBSERVATIONS IN NORTH CENTRAL NEBRASKA...

CITY           SKY/WX    TMP DP  RH WIND       PRES   REMARKS
VALENTINE      CLEAR     54  53  97 W5        30.05R
THEDFORD       CLEAR     57  55  94 W3        30.09R
AINSWORTH      CLEAR     58  55  89 SW3       30.05R
O`NEILL        CLOUDY    58  56  92 W5        30.01S
ORD            CLEAR     53  51  93 NW5       30.02R
BROKEN BOW     CLEAR     56  53  90 CALM      30.04S
VALENTINE NWR    N/A     57  55  92 CALM        N/A
SPRINGVIEW       N/A     53  51  93 CALM        N/A
HALSEY           N/A     57  54  90 CALM        N/A
BREWSTER         N/A     56  55  95 W6          N/A
ROSE             N/A     73  69  89 W8          N/A
NEWPORT          N/A     56  55  95 W3          N/A
SARGENT          N/A     57  54  90 CALM        N/A
CHAMBERS         N/A     59  55  85 N3          N/A
EWING            N/A     58  56  92 CALM        N/A
$$

...OBSERVATIONS IN SOUTHWEST NEBRASKA AND FAR NORTHEAST COLORADO...

CITY           SKY/WX    TMP DP  RH WIND       PRES   REMARKS
WRAY           PTSUNNY   66  56  71 N13       30.12R
HOLYOKE        FAIR      70  55  60 S3        30.12F
IMPERIAL       PTCLDY    64  58  80 NW6       30.09S
OGALLALA       PTCLDY    62  59  90 NE5       30.10S
NORTH PLATTE   CLEAR     56  53  90 N3        30.08R
MCCOOK         PTCLDY    59  56  89 NW5       30.07R
LEXINGTON      CLEAR     56  54  92 NW3       30.05S
PAXTON           N/A     62  59  91 CALM        N/A
GOTHENBURG       N/A     59  52  76 W3          N/A
CALLAWAY         N/A     53  51  94 CALM        N/A
$$

...NORTH PLATTE AREA...

CITY           SKY/WX    TMP DP  RH WIND       PRES   REMARKS
AIRPORT        CLEAR     56  53  90 N3        30.08R
DOWNTOWN         N/A     60  57  90 CALM        N/A
SANDRIDGE        N/A     60  57  91 CALM        N/A
HILLCREST        N/A     60  55  85 CALM        N/A
$$

...SOME WEATHER OBSERVATIONS FROM AROUND THE REGION...

CITY           SKY/WX    TMP DP  RH WIND       PRES   REMARKS
DENVER         MOCLDY    63  52  67 W7        30.18R
LARAMIE        CLEAR     50  47  89 SE7       30.35R
CHEYENNE       PTCLDY    59  47  64 NW8       30.26R
SCOTTSBLUFF    PTCLDY    63  56  78 E7        30.10F
RAPID CITY     LGT RAIN  67  56  67 W20G26    30.08R
PIERRE         CLEAR     57  54  89 W3        29.98R
WINNER         FAIR      61  50  67 CALM      30.01S
SIOUX FALLS    CLEAR     63  59  87 CALM      29.92R
OMAHA          PTCLDY    66  59  78 NW3       29.92R
GRAND ISLAND   CLEAR     57  54  89 W3        30.01S
KANSAS CITY    CLEAR     64  61  90 NW6       29.90R
WICHITA        PTCLDY    70  58  65 N5        29.96R
HAYS           CLEAR     61  46  59 NW5       30.02S
LIBERAL        CLEAR     66  57  72 NW3         N/A
GOODLAND       PTCLDY    58  54  86 CALM      30.09S
$$



USA.gov is the U.S. government's official web portal to all federal, state and local government web resources and services.